Terug naar catalogus

ONEWEB-0098

ActiefCommunicatiePO
NORAD 45442·PAYLOAD·🇬🇧 United Kingdom

Gelanceerd Mar 21, 2020 vanaf Baikonur Cosmodrome

Loading…

Volgende Passages (komende 24 uur)

TLE

VersSource: CelesTrak SupGP

Epoch: Sep 14, 2026, 16:57 UTC

1 45442C 20020U   26257.70675183  .00003104  00000+0  87679-2 0  2575
2 45442  87.8953   3.2728 0001765 100.9479 332.9090 13.11410351    19

Volg ONEWEB-0098 in realtime met AllMySat

Download on the App Store